K5AGY Weather Reports


time (UTC)temp
F
wind
direction
speed
knots
gust
knots
rain 1hr
in
rain 24hr
in
rain mn
in
humidity
%
barometer
mb
20260506184556 85 121 2.6 7.0 0.00 0.00 0.00 67 1008.9
20260506183021 83 60 1.7 5.2 0.00 0.00 0.00 69 1009.2
20260506181544 83 71 0.0 0.9 0.00 0.00 0.00 73 1009.4
20260506180019 83 77 0.9 4.3 0.00 0.00 0.00 72 1009.6
20260506174552 82 89 0.0 3.5 0.00 0.00 0.00 74 1009.7
20260506173016 81 100 1.7 5.2 0.00 0.00 0.00 73 1009.8
20260506171553 81 102 0.9 2.6 0.00 0.00 0.00 74 1010.0
20260506170023 81 39 0.9 4.3 0.00 0.00 0.00 75 1010.3
20260506164601 81 88 0.0 2.6 0.00 0.00 0.00 75 1010.5
20260506163028 80 101 0.0 4.3 0.00 0.00 0.00 76 1010.4
20260506161601 80 111 1.7 3.5 0.00 0.00 0.00 76 1010.2
20260506160028 80 77 0.9 4.3 0.00 0.00 0.00 78 1009.8
20260506154554 79 110 4.3 7.0 0.00 0.00 0.00 78 1009.3
20260506153028 79 82 1.7 4.3 0.00 0.00 0.00 78 1009.2
20260506151502 79 80 2.6 4.3 0.00 0.00 0.00 78 1009.3
20260506150028 79 110 4.3 6.1 0.00 0.00 0.00 78 1009.1
20260506144608 78 96 1.7 5.2 0.00 0.00 0.00 80 1009.0
20260506143033 77 139 0.9 4.3 0.00 0.00 0.00 81 1008.8
20260506141557 77 122 1.7 7.8 0.00 0.00 0.00 81 1008.6
20260506140025 76 111 3.5 7.8 0.00 0.00 0.00 83 1008.3
20260506134559 76 128 3.5 7.0 0.00 0.00 0.00 83 1008.4
20260506133037 76 84 3.5 6.1 0.00 0.00 0.00 84 1008.4
20260506131512 75 81 2.6 6.1 0.00 0.00 0.00 85 1008.4
20260506130058 75 105 1.7 4.3 0.00 0.00 0.00 86 1008.4
20260506124526 74 109 1.7 4.3 0.00 0.00 0.00 86 1008.3
20260506123003 74 104 0.9 2.6 0.00 0.00 0.00 86 1008.2
20260506121548 74 111 0.9 2.6 0.00 0.00 0.00 86 1008.2
20260506120025 74 103 0.0 1.7 0.00 0.00 0.00 86 1008.1
20260506114556 74 135 0.0 2.6 0.00 0.00 0.00 85 1008.0
20260506113035 74 132 0.9 6.1 0.00 0.00 0.00 85 1007.9
20260506111510 74 123 3.5 6.1 0.00 0.00 0.00 85 1007.7
20260506110047 74 118 1.7 3.5 0.00 0.00 0.00 85 1007.8
20260506104523 74 122 0.0 4.3 0.00 0.00 0.00 85 1007.7
20260506103129 74 143 0.9 5.2 0.00 0.00 0.00 86 1007.6
20260506101538 74 175 0.0 2.6 0.00 0.00 0.00 85 1007.5
20260506100013 74 152 0.9 3.5 0.00 0.00 0.00 85 1007.5
20260506094552 73 174 0.9 3.5 0.00 0.00 0.00 85 1007.4
20260506093025 73 162 0.0 3.5 0.00 0.00 0.00 85 1007.5
20260506091502 74 167 0.9 3.5 0.00 0.00 0.00 85 1007.5
20260506090047 74 144 1.7 3.5 0.00 0.00 0.00 85 1007.4
20260506084517 74 184 0.9 2.6 0.00 0.00 0.00 85 1007.3
20260506083054 74 153 0.9 5.2 0.00 0.00 0.00 85 1007.3
20260506081531 74 162 0.9 3.5 0.00 0.00 0.00 84 1007.1
20260506073001 74 180 0.9 5.2 0.00 0.00 0.00 83 1007.8
20260506071530 75 106 2.6 7.0 0.00 0.00 0.00 83 1008.0
20260506061558 75 117 3.5 8.7 0.00 0.00 0.00 83 1008.1
20260506044555 76 169 3.5 7.8 0.00 0.00 0.00 81 1008.3
20260506043039 76 153 3.5 6.1 0.00 0.00 0.00 81 1008.3
20260506041509 76 115 2.6 7.0 0.00 0.00 0.00 81 1008.1
20260506040047 76 129 2.6 5.2 0.00 0.00 0.00 81 1008.2
20260506034527 76 121 2.6 6.1 0.00 0.00 0.00 81 1008.2
20260506033100 76 140 4.3 7.8 0.00 0.00 0.00 81 1007.9
20260506031546 76 140 3.5 6.1 0.00 0.00 0.00 80 1007.7
20260506030018 76 123 1.7 7.0 0.00 0.00 0.00 80 1007.6
20260506024558 77 95 2.6 7.0 0.00 0.00 0.00 80 1007.1
20260506023030 77 118 3.5 5.2 0.00 0.00 0.00 79 1007.0
20260506021508 77 118 1.7 6.1 0.00 0.00 0.00 79 1006.8
20260506020046 77 113 2.6 6.1 0.00 0.00 0.00 78 1006.6
20260506014525 78 118 1.7 7.8 0.00 0.00 0.00 78 1006.5
20260506013107 78 124 2.6 8.7 0.00 0.00 0.00 76 1006.1
20260506011539 79 129 4.3 10.4 0.00 0.00 0.00 75 1005.9
20260506010013 79 127 4.3 11.3 0.00 0.00 0.00 74 1005.7
20260506004551 80 144 4.3 10.4 0.00 0.00 0.00 73 1005.6
20260506003027 80 151 5.2 10.4 0.00 0.00 0.00 72 1005.5
20260506001504 81 121 3.5 7.0 0.00 0.00 0.00 72 1005.5
20260506000042 81 135 3.5 8.7 0.00 0.00 0.00 71 1005.2
20260505234504 82 108 6.1 13.0 0.00 0.00 0.00 70 1005.1
20260505233038 82 125 6.1 13.0 0.00 0.00 0.00 69 1005.0
20260505231510 84 124 6.1 13.9 0.00 0.00 0.00 69 1005.0
20260505230052 84 104 4.3 12.2 0.00 0.00 0.00 67 1004.9
20260505224523 85 130 6.1 12.2 0.00 0.00 0.00 65 1005.0
20260505223106 85 120 6.1 12.2 0.00 0.00 0.00 65 1004.9
20260505221531 86 167 4.3 10.4 0.00 0.00 0.00 64 1005.1
20260505220001 86 122 6.1 11.3 0.00 0.00 0.00 64 1005.4
20260505214600 86 143 5.2 10.4 0.00 0.00 0.00 63 1005.4
20260505213009 86 143 5.2 11.3 0.00 0.00 0.00 63 1005.6
20260505211540 86 124 4.3 10.4 0.00 0.00 0.00 62 1005.8
20260505210010 86 116 5.2 13.0 0.00 0.00 0.00 62 1006.1
20260505204541 86 194 5.2 9.6 0.00 0.00 0.00 63 1006.4
20260505203008 86 203 6.1 11.3 0.00 0.00 0.00 64 1006.7
20260505201538 85 131 4.3 9.6 0.00 0.00 0.00 66 1006.8
20260505200006 85 185 5.2 11.3 0.00 0.00 0.00 64 1007.1
20260505194533 84 197 4.3 9.6 0.00 0.00 0.00 66 1007.2
20260505193058 84 196 3.5 7.8 0.00 0.00 0.00 68 1007.6
20260505191523 83 161 1.7 5.2 0.00 0.00 0.00 69 1007.7
20260505190051 82 186 2.6 6.1 0.00 0.00 0.00 71 1008.1